| time (UTC) | temp C | wind direction | speed KPH | gust KPH | rain 1hr cm | rain 24hr cm | rain mn cm | humidity % | barometer mb |
| 20260504120129 | 17 | 202 | 1.6 | 4.8 | 0.00 | 0.03 | 0.03 | 64 | 1007.6 |
| 20260504081538 | 17 | 79 | 0.0 | 1.6 | 0.03 | 0.03 | 0.03 | 65 | 1007.6 |
| 20260504050002 | 20 | 208 | 3.2 | 12.9 | 0.00 | 0.00 | 0.00 | 49 | 1007.4 |
| 20260504044505 | 20 | 163 | 1.6 | 14.5 | 0.00 | 0.00 | 0.00 | 48 | 1007.3 |
| 20260504043114 | 20 | 249 | 1.6 | 4.8 | 0.00 | 0.00 | 0.00 | 47 | 1007.6 |
| 20260504041559 | 20 | 188 | 0.0 | 3.2 | 0.00 | 0.00 | 0.00 | 47 | 1008.2 |
| 20260504040057 | 21 | 202 | 1.6 | 8.0 | 0.00 | 0.00 | 0.00 | 46 | 1007.8 |
| 20260504034556 | 21 | 178 | 3.2 | 9.7 | 0.00 | 0.00 | 0.00 | 45 | 1008.5 |
| 20260504033104 | 21 | 201 | 0.0 | 3.2 | 0.00 | 0.00 | 0.00 | 45 | 1008.8 |
| 20260504031558 | 21 | 190 | 0.0 | 4.8 | 0.00 | 0.00 | 0.00 | 45 | 1009.0 |
| 20260504030109 | 21 | 200 | 0.0 | 3.2 | 0.00 | 0.00 | 0.00 | 45 | 1008.9 |
| 20260504024555 | 21 | 200 | 0.0 | 3.2 | 0.00 | 0.00 | 0.00 | 47 | 1008.9 |
| 20260504023051 | 21 | 201 | 0.0 | 1.6 | 0.00 | 0.00 | 0.00 | 44 | 1009.0 |
| 20260504021552 | 22 | 198 | 0.0 | 3.2 | 0.00 | 0.00 | 0.00 | 42 | 1008.9 |
| 20260504020054 | 22 | 212 | 0.0 | 4.8 | 0.00 | 0.00 | 0.00 | 39 | 1008.6 |
| 20260504014550 | 22 | 152 | 0.0 | 4.8 | 0.00 | 0.00 | 0.00 | 39 | 1008.5 |
| 20260504013053 | 23 | 236 | 3.2 | 8.0 | 0.00 | 0.00 | 0.00 | 38 | 1008.3 |
| 20260504011549 | 23 | 158 | 1.6 | 4.8 | 0.00 | 0.00 | 0.00 | 37 | 1008.2 |
| 20260504010055 | 23 | 196 | 1.6 | 4.8 | 0.00 | 0.00 | 0.00 | 36 | 1008.2 |
| 20260504004547 | 23 | 165 | 0.0 | 4.8 | 0.00 | 0.00 | 0.00 | 36 | 1008.1 |
| 20260504003045 | 23 | 182 | 1.6 | 6.4 | 0.00 | 0.00 | 0.00 | 34 | 1008.1 |
| 20260504001548 | 23 | 239 | 0.0 | 4.8 | 0.00 | 0.00 | 0.00 | 34 | 1008.2 |
| 20260504000046 | 24 | 292 | 1.6 | 11.3 | 0.00 | 0.00 | 0.00 | 33 | 1008.3 |
| 20260503234543 | 25 | 190 | 0.0 | 8.0 | 0.00 | 0.00 | 0.00 | 31 | 1008.4 |
| 20260503233041 | 25 | 250 | 1.6 | 8.0 | 0.00 | 0.00 | 0.00 | 30 | 1008.6 |
| 20260503231539 | 25 | 202 | 1.6 | 8.0 | 0.00 | 0.00 | 0.00 | 29 | 1008.7 |
| 20260503230053 | 25 | 170 | 1.6 | 12.9 | 0.00 | 0.00 | 0.00 | 29 | 1008.8 |
| 20260503224537 | 25 | 294 | 0.0 | 12.9 | 0.00 | 0.00 | 0.00 | 28 | 1008.9 |
| 20260503223038 | 25 | 249 | 3.2 | 14.5 | 0.00 | 0.00 | 0.00 | 27 | 1009.0 |
| 20260503221541 | 26 | 202 | 0.0 | 11.3 | 0.00 | 0.00 | 0.00 | 27 | 1009.0 |
| 20260503220037 | 26 | 228 | 3.2 | 8.0 | 0.00 | 0.00 | 0.00 | 25 | 1009.3 |
| 20260503214546 | 26 | 27 | 1.6 | 12.9 | 0.00 | 0.03 | 0.00 | 26 | 1009.4 |
| 20260503213034 | 26 | 246 | 3.2 | 12.9 | 0.00 | 0.03 | 0.00 | 26 | 1009.5 |
| 20260503211529 | 26 | 308 | 3.2 | 12.9 | 0.00 | 0.03 | 0.00 | 25 | 1009.6 |
| 20260503210028 | 26 | 165 | 3.2 | 12.9 | 0.00 | 0.03 | 0.00 | 27 | 1009.8 |
| 20260503204528 | 26 | 236 | 1.6 | 9.7 | 0.00 | 0.03 | 0.00 | 28 | 1010.0 |
| 20260503203025 | 26 | 15 | 4.8 | 14.5 | 0.00 | 0.03 | 0.00 | 26 | 1010.3 |
| 20260503201518 | 25 | 277 | 3.2 | 12.9 | 0.00 | 0.03 | 0.00 | 31 | 1010.7 |
| 20260503200015 | 25 | 166 | 4.8 | 19.3 | 0.00 | 0.03 | 0.00 | 28 | 1011.0 |
| 20260503194511 | 25 | 165 | 3.2 | 11.3 | 0.00 | 0.03 | 0.00 | 30 | 1011.5 |
| 20260503193008 | 23 | 171 | 4.8 | 24.1 | 0.00 | 0.03 | 0.00 | 30 | 1011.9 |
| 20260503191506 | 24 | 145 | 4.8 | 20.9 | 0.00 | 0.03 | 0.00 | 31 | 1012.3 |
| 20260503190006 | 23 | 160 | 6.4 | 14.5 | 0.00 | 0.03 | 0.00 | 31 | 1012.7 |
| 20260503184601 | 23 | 163 | 4.8 | 12.9 | 0.00 | 0.03 | 0.00 | 30 | 1012.9 |
| 20260503183104 | 22 | 130 | 4.8 | 14.5 | 0.00 | 0.03 | 0.00 | 31 | 1013.2 |
| 20260503181606 | 22 | 172 | 6.4 | 12.9 | 0.00 | 0.03 | 0.00 | 31 | 1013.6 |
| 20260503180053 | 22 | 120 | 3.2 | 12.9 | 0.00 | 0.03 | 0.00 | 31 | 1014.4 |
| 20260503174553 | 22 | 137 | 3.2 | 16.1 | 0.00 | 0.03 | 0.00 | 31 | 1014.8 |
| 20260503173046 | 21 | 253 | 4.8 | 17.7 | 0.00 | 0.03 | 0.00 | 34 | 1015.5 |
| 20260503171542 | 21 | 250 | 3.2 | 12.9 | 0.00 | 0.03 | 0.00 | 37 | 1015.8 |